Other Public Products
Issued by NWS Grand Forks, ND

Home | Current Version | Previous Version | Graphics & Text | Print | Product List | Glossary On
Versions: 1 2 3 4 5 6 7 8 9 10 11 12 13 14 15 16 17 18 19 20 21 22 23 24 25 26 27 28 29 30 31 32 33 34 35 36 37 38 39 40 41 42 43 44 45 46 47 48 49 50
494
FPUS83 KFGF 250710
OPUFGF
PRAIRIE TO PINES WEATHER ROUNDUP
NATIONAL WEATHER SERVICE EASTERN NORTH DAKOTA/GRAND FORKS ND
200 AM CDT SAT MAR 25 2017

 **SATELLITE DATA USED TO AUGMENT SKY COVER AT AUTOMATED STATIONS**
 *****  WEATHER ACROSS EASTERN NORTH DAKOTA  *****

CITY           SKY/WX    TMP DP  RH WIND       PRES   REMARKS
GRAND FORKS    FAIR      29  28  96 CALM      30.21F
GRAND FORKS AF FAIR      26  26  99 NW5       30.21F WCI  20
GRAND CITY NWS NOT AVBL
BUXTON         NOT AVBL
DEVILS LAKE    CLOUDY    30  27  88 SE12      30.18F WCI  20
FARGO          FAIR      27  25  92 CALM      30.21F
WAHPETON ARPT    N/A     28  27  93 NE3       30.21F
$$

 *****  WEATHER ACROSS CENTRAL AND WESTERN NORTH DAKOTA  *****

CITY           SKY/WX    TMP DP  RH WIND       PRES   REMARKS
JAMESTOWN      CLOUDY    29  27  92 SE7       30.18F WCI  22
BISMARCK       FAIR      30  27  88 E9        30.13F WCI  22
MINOT          CLOUDY    31  29  92 SE13      30.06F WCI  21
MINOT AFB      CLOUDY    32  28  86 SE20      30.06F WCI  20
GARRISON         N/A     29  28  96 SE10      30.07S WCI  20
WILLISTON      FAIR      43  33  68 SE10G18   29.92F
DICKINSON      FLURRIES  38  31  76 SE20G28   29.96F
HETTINGER      FAIR      38  31  76 SE16      30.01F
$$

 *****  OTHER OBSERVATIONS NORTHEAST NORTH DAKOTA  *****

CITY           SKY/WX    TMP DP  RH WIND       PRES   REMARKS
WALHALLA       NOT AVBL
LANGDON        FAIR      25  25 100 S6        30.19S WCI  18
CAVALIER         N/A     27  27 100 CALM      30.21F
GRAFTON        FAIR      27  27 100 NW5       30.24S WCI  21
CANDO          NOT AVBL
FORT TOTTEN      N/A     29  29 100 S8        29.95S WCI  21
ROLLA          CLOUDY    27  27 100 S15       30.15F WCI  15
RUGBY            N/A     28  28 100 SE13G22   30.14F WCI  18
 ***** THE ABOVE OBSERVATIONS ARE NON NWS ARE NOT QUALITY
        CONTROLLED AND MAY MIS-REPORT RAIN FOR SNOW...
$$

 *****  OTHER OBSERVATIONS SOUTHEAST NORTH DAKOTA *****

CITY           SKY/WX    TMP DP  RH WIND       PRES   REMARKS
COOPERSTOWN    FAIR      28  28 100 CALM      30.19F
VALLEY CITY    FAIR      25  27 100 CALM      30.21F
OAKES          NOT AVBL
GWINNER        SUNNY     27  27 100 MISG      30.20F
SHEYENNE NWR     N/A     24  23  96 CALM      29.95S
BUFFALO        NOT AVBL
WYNDMERE       NOT AVBL
 ***** THE ABOVE OBSERVATIONS ARE NON NWS ARE NOT QUALITY
       CONTROLLED AND MAY MIS-REPORT RAIN FOR SNOW...
$$

  *****  WEATHER ACROSS NORTHERN MINNESOTA  *****

CITY           SKY/WX    TMP DP  RH WIND       PRES   REMARKS
FLAG ISLAND    FAIR      30  25  80 E5        30.23S
WARROAD        FAIR      28  25  86 E5        30.23S WCI  23
ROSEAU         FAIR      28  23  80 E5        30.22S WCI  23
HALLOCK        FAIR      30  28  93 CALM      30.22S
THF RVR FALLS  FAIR     N/A N/A N/A E7        30.22
HALSTAD          N/A     29  28  97 CALM        N/A
FOSSTON        FAIR      25  25 100 CALM      30.22S
BAUDETTE       FAIR      28  24  85 E6        30.23R WCI  22
WASKISH        MOCLDY    30  27  86 CALM      30.23R
CROOKSTON      FAIR      32  28  86 SE7       30.22S
$$
  *****  WEATHER ACROSS CENTRAL AND WEST MINNESOTA  *****

CITY           SKY/WX    TMP DP  RH WIND       PRES   REMARKS
BEMIDJI        CLOUDY    34  29  83 SE6       30.22R
PARK RAPIDS    CLOUDY    37  26  64 SE9       30.21R
WADENA         CLOUDY    36  28  75 E7        30.21R
DETROIT LAKES  CLOUDY    32  30  93 SE3       30.22S
MOORHEAD       FAIR      28  28 100 E3        30.22F
FERGUS FALLS   FAIR      30  28  93 E3        30.26R
ELBOW LAKE     PTSUNNY   33  30  88 SE7       30.21S
MORRIS MN      CLOUDY    36  30  80 E8        30.18F
STAPLES        CLOUDY    36  28  75 E3        30.22S
WHEATON          N/A     28  28 100 CALM      30.23S FOG
$$
  *****  WEATHER ELSEWHERE ACROSS MINNESOTA  *****

CITY           SKY/WX    TMP DP  RH WIND       PRES   REMARKS
DULUTH         CLOUDY    33  31  92 E10       30.25R WCI  25
INTRNTL FALLS  CLOUDY    33  27  78 E5        30.24S
ELY            CLOUDY    32  28  86 SE5       30.26R
CLOQUET        CLOUDY    34  30  86 NE6       30.25R
BRAINERD       CLOUDY    36  31  82 E5        30.23R
HIBBING        CLOUDY    32  31  96 SE6       30.25R
ALEXANDRIA     CLOUDY    34  30  85 NE6       30.19F
SAINT CLOUD    CLOUDY    36  31  82 E6        30.18F
MINNEAPOLIS    CLOUDY    38  31  76 NE9       30.18F
$$

  *****  WEATHER ACROSS SOUTH DAKOTA  *****

CITY           SKY/WX    TMP DP  RH WIND       PRES   REMARKS
SIOUX FALLS    CLOUDY    36  34  92 NE13      30.11S FOG
BROOKINGS      CLOUDY    34  31  88 E13       30.12F WCI  25
WATERTOWN      CLOUDY    32  31  96 CALM      30.14F
HURON          CLOUDY    38  34  85 NE3       30.15F
SISSETON         N/A     28  27  96 N5        30.19S WCI  23
ABERDEEN       MOCLDY    26  23  88 N6        30.20S WCI  19
MITCHELL       CLOUDY    39  34  82 NE9       30.15F
PIERRE         FAIR      29  26  89 E6        30.12F WCI  23
MOBRIDGE       FAIR      31  27  85 E13       30.10F WCI  21
RAPID CITY     FAIR      37  28  70 SE8       30.03F
$$

  *****  SOME WEATHER IN NEARBY STATES *****

CITY           SKY/WX    TMP DP  RH WIND       PRES   REMARKS
GLASGOW MT     CLOUDY    51  30  44 SE16      29.75F
GREAT FALLS MT FAIR      43  30  60 SW16      29.83R
CHEYENNE WY    FAIR      30  24  78 SW8       30.10F WCI  22
SCOTTSBLUFF NE FAIR      32  25  75 E6        30.09F
OMAHA NE       CLOUDY    42  37  82 N16G24    29.95S
DES MOINES IA  DRIZZLE   44  42  93 NE14      29.93F FOG
DAVENPORT IA   CLOUDY    45  42  89 E15       30.01R FOG
CHICAGO IL     CLOUDY    42  36  79 NE12      30.07R
EAU CLAIRE WI  CLOUDY    37  32  82 NE10      30.16F
LA CROSSE WI   CLOUDY    40  36  86 E10       30.13F
$$

  *****  SOME NATIONAL WEATHER *****

CITY           SKY/WX    TMP DP  RH WIND       PRES   REMARKS
LA GUARDIA NY  MOCLDY    55  34  45 SW9       30.07F
RALEIGH NC     MOCLDY    58  48  69 SW14      30.33S
ATLANTA GA     MOCLDY    61  49  64 SE10      30.25F
NEW ORLEANS LA CLOUDY    71  66  84 SE16      30.06F
OKLAHOMA CITY  LGT RAIN  51  49  92 NW24      29.82R
ALBUQUERQUE NM FAIR      51  19  28 W7        30.17S
SALT LAKE CITY CLOUDY    53  34  48 SE15      30.00F
LOS ANGELES CA MOCLDY    58  52  80 W12       30.18R
BOISE ID       FAIR      43  39  86 SE7       30.07S
SEATTLE WA     FAIR      45  42  89 S9        30.03R
$$

*** WEATHER ACROSS MANITOBA...SASKATCHEWAN AND ONTARIO ***
                ***ONTARIO***

CITY           SKY/WX    TMP DP  RH WIND       PRES   REMARKS
GERALDTON      CLEAR      9  -6  52 NE8       30.38S WCI  -4
THUNDER BAY    PTCLDY    28  16  59 E13       30.33R WCI  18
SIOUX LOOKOUT  CLEAR     23  10  58 E6        30.28F WCI  16
TORONTO        CLOUDY    39  36  87 NE8       30.15R
BIG TROUT LK   CLEAR     -8 -13  77 S2        30.42S
PICKLE LAKE    NOT AVBL
DRYDEN         PTCLDY    23  19  86 E5        30.24F WCI  17
KENORA         PTCLDY    28  23  80 E6        30.23S WCI  22
$$
                *** MANITOBA***

CITY           SKY/WX    TMP DP  RH WIND       PRES   REMARKS
BRANDON        CLOUDY    28  25  86 SE15      30.15F WCI  17
DAUPHIN        CLEAR     27  23  86 SE6       30.12F WCI  20
ISLAND LAKE    NOT AVBL
PILOT MOUND      N/A     28  25  86 S13         N/A  WCI  18
THE PAS        CLOUDY    21  10  63 SE12G17   30.12F WCI   9
THOMPSON       CLOUDY    14  -4  44 SE3       30.25F
WINNIPEG       CLEAR     28  27  93 SE3       30.23S
LYNN LAKE      CLOUDY    16   7  67 SE6       30.13F WCI   7
CHURCHILL      CLEAR    -11 -17  77 S9        30.37F WCI -29
GILLAM         CLEAR      0  -9  65 SE7       30.36F WCI -13
$$
                ***SASKATCHEWAN***

CITY           SKY/WX    TMP DP  RH WIND       PRES   REMARKS
ESTEVAN        MOCLDY    32  30  93 SE16G24   29.95F WCI  21
KINDERSLEY     CLOUDY    37  36  93 E16       29.60F
LLOYDMINSTER   CLOUDY    34  32  93 E15       29.64F WCI  24
PRINCE ALBERT  FRZ RAIN  30  25  80 E15G22    29.87F WCI  19
REGINA         LGT RAIN  36  32  87 SE18G32   29.84F
YORKTON        CLOUDY    28  27  93 SE16G22   29.97F WC



USA.gov is the U.S. government's official web portal to all federal, state and local government web resources and services.